Date,TemperatureHighF,TemperatureAvgF,TemperatureLowF,DewpointHighF,DewpointAvgF,DewpointLowF,HumidityHigh,HumidityAvg,HumidityLow,PressureMaxIn,PressureMinIn,WindSpeedMaxMPH,WindSpeedAvgMPH,GustSpeedMaxMPH,PrecipitationSumIn
2013-1-1,29,25,14,23,19,12,90,79,73,30.19,30.10,12,3,17,0.00
2013-1-2,28,20,15,19,14,8,87,76,63,30.25,30.18,10,3,14,0.00
2013-1-3,32,25,15,26,20,8,87,80,71,30.27,30.16,15,4,19,0.00
2013-1-4,34,24,16,24,19,10,88,80,64,30.28,30.17,12,4,18,0.00
2013-1-5,36,28,18,32,25,16,95,87,71,30.31,30.04,12,4,18,0.00
2013-1-6,36,33,29,32,29,25,91,86,81,30.34,29.95,17,6,22,0.01
2013-1-7,36,27,19,27,23,17,95,83,63,30.41,30.16,16,5,21,0.00
2013-1-8,39,32,27,31,27,24,89,81,68,30.24,30.11,15,4,18,0.00
2013-1-9,48,41,30,36,31,26,87,70,46,30.49,30.08,14,5,25,0.00
2013-1-10,42,33,24,37,29,22,96,84,65,30.56,30.03,16,4,19,0.18
2013-1-11,54,48,38,52,47,37,99,94,89,30.02,29.73,16,6,22,0.48
2013-1-12,58,49,38,51,45,36,95,85,74,29.97,29.76,16,5,25,0.19
2013-1-13,38,31,21,36,30,18,98,94,86,30.21,29.83,19,6,21,0.10
2013-1-14,24,21,16,19,17,13,93,85,78,30.50,30.21,14,3,17,0.00
2013-1-15,30,22,14,23,18,13,95,85,65,30.47,30.19,6,1,9,0.00
2013-1-16,36,28,17,30,22,16,95,80,56,30.19,29.89,14,4,21,0.00
2013-1-17,35,30,24,31,22,15,85,73,64,30.41,30.06,22,7,27,0.00
2013-1-18,33,25,22,24,18,16,84,76,68,30.46,30.29,15,3,20,0.00
2013-1-19,48,42,36,38,33,29,80,72,61,30.00,29.73,11,7,32,0.00
2013-1-20,40,20,17,28,12,9,83,71,54,30.29,29.77,16,6,39,0.00
2013-1-21,19,13,8,10,6,2,88,74,60,30.27,30.15,22,7,28,0.00
2013-1-22,12,8,6,7,4,1,89,81,65,30.41,30.27,13,5,20,0.00
2013-1-23,20,15,10,17,8,2,93,74,60,30.38,30.14,25,5,34,0.00
2013-1-24,21,15,9,14,8,3,92,73,49,30.67,30.25,21,3,32,0.00
2013-1-25,26,21,17,23,16,7,89,80,66,30.47,30.03,12,3,19,0.00
2013-1-26,27,25,22,23,20,17,89,80,73,30.47,30.12,17,4,20,0.00
2013-1-27,26,23,22,21,19,17,90,84,80,30.46,30.41,12,4,15,0.00
2013-1-28,49,40,38,48,40,38,99,99,98,30.00,29.93,5,2,11,0.14
2013-1-29,59,56,39,58,56,39,100,97,92,29.93,29.39,21,7,23,0.84
2013-1-30,53,42,26,52,41,22,100,97,84,29.52,29.15,22,5,28,0.61
2013-1-31,26,18,11,22,14,10,92,85,71,30.09,29.52,25,7,28,0.00
2013-2-1,15,10,6,9,6,3,92,84,63,30.40,30.09,15,4,18,0.00
2013-2-2,25,19,13,23,16,9,93,91,83,30.28,30.01,13,3,16,0.00
2013-2-3,22,18,13,19,14,10,93,85,74,30.09,29.99,16,3,22,0.00
2013-2-4,28,23,20,24,20,16,94,90,81,30.09,29.89,6,2,10,0.00
2013-2-5,31,25,13,29,23,12,96,90,79,30.06,29.84,17,4,21,0.00
2013-2-6,37,30,24,26,23,20,89,74,57,30.29,30.06,12,3,18,0.12
2013-2-7,31,30,29,27,26,26,89,87,83,30.20,30.14,10,3,14,0.00
2013-2-8,34,30,27,34,25,22,99,82,73,30.40,29.86,16,8,26,0.01
2013-2-9,37,28,16,28,23,14,95,83,69,30.45,30.18,11,3,17,0.00
2013-2-10,49,38,30,47,34,24,97,86,78,30.18,29.58,16,6,20,0.16
2013-2-11,50,37,30,47,29,24,92,75,68,30.01,29.58,25,8,30,0.00
2013-2-12,30,28,24,25,23,21,90,81,75,30.13,29.98,14,4,21,0.00
2013-2-13,45,32,23,34,27,21,93,82,61,29.98,29.75,13,3,15,0.00
2013-2-14,41,36,30,35,31,23,93,80,63,29.97,29.70,19,6,25,0.00
2013-2-15,34,27,18,29,21,14,96,80,64,30.20,29.96,16,5,22,0.00
2013-2-16,25,20,15,20,13,7,90,76,61,30.18,30.12,17,6,24,0.00
2013-2-17,31,22,16,18,14,10,92,73,42,30.26,30.15,11,2,13,0.03
2013-2-18,53,37,23,46,29,15,96,71,61,30.16,29.60,17,7,24,0.06
2013-2-19,45,19,16,44,15,11,96,84,79,29.97,29.45,18,8,31,0.03
2013-2-20,22,20,15,19,17,11,89,86,80,30.38,30.13,15,6,22,0.03
2013-2-21,27,24,22,21,19,18,88,83,75,30.42,30.25,9,2,11,0.00
2013-2-22,34,30,22,33,27,18,97,87,77,30.10,29.87,11,5,28,0.01
2013-2-23,30,28,26,25,22,20,86,79,67,29.99,29.93,12,4,14,0.00
2013-2-24,35,28,21,26,22,19,94,80,63,30.19,29.98,11,3,15,0.00
2013-2-25,42,31,19,30,25,18,96,79,58,30.25,30.05,10,2,12,0.01
2013-2-26,36,33,31,32,29,25,98,85,67,30.06,29.50,20,3,30,0.19
2013-2-27,37,33,32,36,33,32,99,98,92,29.64,29.49,6,1,9,0.43
2013-2-28,36,34,32,34,32,28,99,90,83,30.02,29.64,20,10,26,0.11
2013-3-1,33,30,26,28,26,21,93,83,72,30.17,30.02,13,6,17,0.00
2013-3-2,30,28,24,24,21,19,87,77,70,30.18,30.13,22,9,24,0.00
2013-3-3,30,26,18,23,19,15,92,76,63,30.16,30.10,15,4,21,0.00
2013-3-4,37,27,16,26,20,15,95,76,49,30.20,30.06,10,2,10,0.00
2013-3-5,32,30,27,29,27,24,98,88,74,30.09,29.81,15,5,21,0.00
2013-3-6,36,31,26,32,28,25,98,90,75,30.29,29.93,19,8,22,0.05
2013-3-7,33,32,31,32,31,30,98,97,95,30.39,30.28,11,4,13,0.00
2013-3-8,41,28,14,26,22,13,95,79,52,30.55,30.41,5,1,12,0.00
2013-3-9,42,36,29,35,29,22,82,77,65,30.41,29.95,13,5,20,0.00
2013-3-10,58,48,38,48,42,35,97,78,68,29.95,29.68,15,4,16,0.25
2013-3-11,53,44,34,49,42,31,99,94,79,29.76,29.52,14,4,19,0.18
2013-3-12,36,33,29,32,28,25,95,84,66,29.98,29.76,15,5,21,0.00
2013-3-13,30,28,24,26,20,16,94,75,56,30.34,29.99,21,8,26,0.00
2013-3-14,41,32,22,30,23,17,91,68,44,30.35,30.15,9,3,14,0.00
2013-3-15,45,36,30,37,33,29,97,90,72,30.14,29.82,10,3,11,0.08
2013-3-16,37,34,30,37,31,23,98,91,77,30.12,29.70,18,6,24,0.00
2013-3-17,38,32,29,26,23,20,82,70,56,30.24,30.09,15,6,20,0.00
2013-3-18,35,31,27,34,28,22,97,89,76,30.09,29.61,18,6,26,0.03
2013-3-19,34,26,20,22,17,15,84,69,51,30.07,29.78,25,8,30,0.00
2013-3-20,29,22,18,19,14,9,91,71,60,30.08,30.03,16,8,25,0.00
2013-3-21,30,24,19,21,17,11,94,77,63,30.08,30.00,17,6,20,0.00
2013-3-22,35,30,18,22,19,14,92,67,43,30.11,30.04,14,4,19,0.00
2013-3-23,37,29,20,27,24,19,96,81,62,30.17,30.06,14,3,15,0.00
2013-3-24,38,32,26,28,26,22,90,77,61,30.07,29.64,23,3,29,0.00
2013-3-25,36,33,30,30,28,24,85,80,74,30.03,29.66,22,12,27,0.00
2013-3-26,38,34,31,32,31,29,96,87,76,30.25,30.03,17,6,21,0.00
2013-3-27,41,35,26,33,27,20,94,74,48,30.33,30.24,18,4,23,0.00
2013-3-28,45,36,26,31,24,21,88,66,39,30.36,30.30,13,3,19,0.00
2013-3-29,49,35,24,33,24,20,94,68,34,30.35,30.26,14,2,19,0.00
2013-3-30,58,42,24,38,30,20,91,64,41,30.27,29.91,11,3,16,0.00
2013-3-31,58,48,39,44,39,30,97,72,49,29.91,29.69,21,6,26,0.01
2013-4-1,39,32,24,33,22,17,84,65,51,30.17,29.83,21,9,28,0.00
2013-4-2,39,32,24,23,18,10,85,58,35,30.32,30.17,17,5,23,0.00
2013-4-3,41,30,20,26,20,14,92,67,34,30.48,30.32,17,4,20,0.00
2013-4-4,54,38,22,30,22,19,89,57,30,30.37,29.98,11,3,17,0.00
2013-4-5,48,39,31,35,28,22,90,66,42,30.22,29.98,17,6,20,0.00
2013-4-6,68,50,31,45,33,27,89,55,36,30.18,29.66,18,7,30,0.00
2013-4-7,63,50,42,49,42,36,85,72,48,29.98,29.63,21,6,35,0.00
2013-4-8,67,49,40,58,43,36,96,81,63,29.99,29.67,32,6,32,0.21
2013-4-9,77,54,40,63,48,38,96,83,60,30.01,29.80,14,4,24,0.00
2013-4-10,51,46,41,49,44,40,98,95,91,29.96,29.82,20,4,26,0.22
2013-4-11,45,43,41,44,42,40,98,97,95,29.88,29.59,16,7,21,1.13
2013-4-12,45,40,37,40,37,32,99,88,75,29.86,29.59,15,4,22,0.11
2013-4-13,44,39,33,35,32,29,94,74,57,30.00,29.86,16,4,23,0.01
2013-4-14,63,48,37,50,40,32,89,74,61,30.07,29.76,19,5,21,0.00
2013-4-15,66,58,45,58,52,44,97,81,67,29.95,29.75,16,6,25,0.75
2013-4-16,48,44,41,45,39,34,98,83,63,30.26,29.94,14,6,17,0.30
2013-4-17,53,47,42,48,42,36,98,82,67,30.29,29.89,15,5,22,0.86
2013-4-18,72,60,48,66,59,48,100,94,78,29.89,29.45,20,7,33,1.05
2013-4-19,53,39,34,51,34,30,95,80,70,29.88,29.48,17,6,32,0.15
2013-4-20,40,35,30,32,25,20,86,67,48,30.47,29.88,17,7,26,0.01
2013-4-21,52,40,27,34,27,21,88,63,40,30.59,30.40,15,4,19,0.00
2013-4-22,65,51,35,40,36,32,87,59,32,30.40,30.10,11,4,16,0.00
2013-4-23,68,51,38,54,44,38,97,78,56,30.10,29.86,15,5,22,0.51
2013-4-24,48,40,36,38,32,24,97,77,49,30.16,29.88,20,8,25,0.00
2013-4-25,50,43,36,38,34,30,87,71,50,30.35,30.11,17,5,25,0.00
2013-4-26,66,50,33,45,38,30,92,65,42,30.42,30.28,12,4,20,0.00
2013-4-27,69,52,39,49,42,37,94,72,34,30.33,30.03,6,2,18,0.00
2013-4-28,59,55,49,55,52,48,97,88,67,30.03,29.82,7,2,9,0.06
2013-4-29,72,60,44,57,52,44,100,79,54,29.94,29.83,13,3,16,0.01
2013-4-30,83,67,58,63,57,53,82,72,46,29.93,29.84,15,7,25,0.00
2013-5-1,84,74,61,61,58,55,86,61,37,30.12,29.94,13,3,16,0.00
2013-5-2,68,53,42,58,47,40,93,80,67,30.18,30.10,15,6,21,0.00
2013-5-3,50,43,42,47,42,40,97,96,91,30.13,30.05,7,3,11,0.00
2013-5-4,73,65,56,55,49,43,97,56,35,30.02,29.96,6,4,17,0.00
2013-5-5,75,63,49,52,48,43,80,60,38,30.02,29.96,5,2,15,0.00
2013-5-6,77,62,49,53,46,35,94,62,23,30.01,29.92,9,2,17,0.00
2013-5-7,75,60,44,56,49,42,97,69,45,30.03,29.97,13,3,17,0.00
2013-5-8,75,63,50,58,51,46,94,69,38,30.03,29.95,14,2,18,0.00
2013-5-9,80,62,48,60,53,47,97,78,39,29.97,29.84,15,1,25,0.26
2013-5-10,61,50,42,61,50,41,100,98,92,29.94,29.74,16,5,19,0.17
2013-5-11,57,45,36,52,42,35,100,90,69,30.01,29.84,24,5,37,0.00
2013-5-12,48,42,35,37,33,31,96,71,53,30.14,30.01,18,7,25,0.00
2013-5-13,59,46,31,38,32,25,98,63,32,30.21,30.08,14,2,18,0.00
2013-5-14,82,67,51,62,48,30,67,51,42,30.08,29.66,15,4,25,0.00
2013-5-15,78,74,56,63,55,49,89,54,40,29.80,29.60,20,6,26,0.00
2013-5-16,81,65,49,56,50,45,100,64,29,29.96,29.78,12,2,15,0.00
2013-5-17,82,67,54,62,53,45,87,63,41,30.05,29.94,9,2,22,0.00
2013-5-18,82,68,58,65,55,43,95,64,51,30.07,29.94,8,2,13,0.00
2013-5-19,88,74,59,67,62,54,95,67,45,29.97,29.74,9,2,15,0.00
2013-5-20,88,79,70,72,68,62,92,70,42,29.81,29.68,14,4,20,0.00
2013-5-21,82,75,63,69,67,62,96,75,61,29.76,29.64,16,4,20,0.83
2013-5-22,75,68,62,69,64,59,96,88,73,29.71,29.62,10,2,15,0.37
2013-5-23,62,48,42,59,47,40,99,96,86,30.24,29.70,20,8,25,0.01
2013-5-24,52,45,35,43,38,34,98,78,53,30.44,30.23,15,5,22,0.00
2013-5-25,61,49,36,51,43,36,99,82,59,30.42,30.28,9,2,12,0.00
2013-5-26,73,57,40,54,45,39,99,68,37,30.34,30.16,8,2,13,0.00
2013-5-27,59,59,59,54,54,54,84,83,82,30.17,30.14,2,0,3,0.00
2013-5-29,84,73,62,72,66,61,99,81,60,29.96,29.80,5,3,19,0.10
2013-5-30,85,76,68,72,68,63,89,76,61,29.95,29.84,7,4,24,0.08
2013-5-31,77,72,66,69,67,64,95,85,76,29.89,29.72,7,4,20,0.36
2013-6-1,75,70,62,67,65,61,97,85,72,29.78,29.67,6,4,21,0.52
2013-6-2,63,55,47,62,51,43,97,88,74,30.03,29.67,13,7,23,0.01
2013-6-3,63,52,39,51,44,38,100,79,51,30.14,30.03,7,2,17,0.00
2013-6-4,75,64,43,55,51,42,99,65,41,30.20,30.09,12,2,15,0.00
2013-6-5,78,65,53,56,51,47,96,62,45,30.12,29.91,7,2,12,0.00
2013-6-6,71,63,53,58,53,47,95,71,56,29.92,29.83,13,2,14,0.00
2013-6-7,68,59,50,58,52,45,99,80,50,29.92,29.86,15,4,20,0.00
2013-6-8,76,60,46,57,51,45,99,75,48,30.01,29.90,11,2,15,0.00
2013-6-9,82,70,54,67,60,51,93,71,45,30.01,29.81,8,2,12,0.00
2013-6-10,73,67,61,68,65,61,100,93,71,29.83,29.71,13,3,15,0.35
2013-6-11,83,70,59,70,64,59,100,85,61,29.92,29.80,8,1,13,0.01
2013-6-12,90,75,65,78,70,64,99,87,64,29.87,29.53,13,2,18,0.19
2013-6-13,69,63,56,64,59,54,100,87,70,29.98,29.48,23,8,28,0.20
2013-6-14,74,62,52,63,56,51,99,85,62,30.10,29.98,15,4,18,0.00
2013-6-15,75,66,55,67,62,54,100,88,73,30.07,29.87,9,2,13,0.05
2013-6-16,83,74,66,68,66,54,96,77,39,29.89,29.83,9,3,18,0.03
2013-6-17,88,74,63,68,62,50,100,72,30,29.91,29.80,16,2,24,0.02
2013-6-18,64,62,60,63,61,59,98,96,91,29.94,29.85,10,2,11,0.02
2013-6-19,76,64,51,53,50,46,91,63,36,30.15,30.02,7,2,13,0.00
2013-6-20,87,71,52,67,59,50,97,70,43,30.17,30.08,3,1,10,0.00
2013-6-21,87,72,67,69,67,63,98,85,52,30.13,29.96,7,2,21,0.94
2013-6-22,85,76,67,77,71,66,98,86,74,30.06,29.95,9,2,13,0.00
2013-6-23,88,76,65,74,69,64,98,79,54,30.04,29.93,11,3,19,0.00
2013-6-24,86,75,66,74,69,64,98,82,59,30.04,29.87,12,2,24,0.36
2013-6-25,89,76,66,78,72,65,98,88,68,29.95,29.78,10,3,17,0.45
2013-6-26,83,73,65,75,69,65,99,88,67,29.88,29.69,11,2,15,0.35
2013-6-27,85,72,65,75,69,65,100,91,68,29.75,29.64,25,3,32,0.24
2013-6-28,78,70,64,67,65,63,100,85,62,29.65,29.55,14,3,19,0.01
2013-6-29,73,66,62,68,64,61,100,94,76,29.62,29.53,12,3,17,0.23
2013-6-30,75,68,64,69,64,60,99,87,75,29.93,29.81,20,4,28,0.06
2013-7-1,76,65,53,64,56,47,99,74,54,30.03,29.93,15,3,20,0.00
2013-7-2,64,61,59,61,59,54,100,92,72,30.05,30.00,8,3,14,0.45
2013-7-3,78,67,60,68,64,60,100,91,72,30.07,29.98,9,1,13,0.03
2013-7-4,80,70,60,69,64,60,100,85,63,30.11,30.03,6,1,8,0.01
2013-7-5,84,72,59,72,66,59,100,83,62,30.09,29.99,7,1,9,0.00
2013-7-6,82,73,66,73,69,66,99,89,71,30.05,29.95,8,1,12,0.00
2013-7-7,85,76,68,75,71,67,97,86,67,30.00,29.92,7,2,15,0.00
2013-7-8,83,76,70,76,72,68,94,87,78,30.02,29.90,10,2,16,0.27
2013-7-9,89,77,69,79,75,68,100,92,72,29.97,29.84,7,1,16,0.31
2013-7-10,80,75,60,78,70,59,97,85,60,29.96,29.80,21,6,27,0.00
2013-7-11,76,66,57,65,59,56,100,82,52,30.08,29.96,14,3,18,0.00
2013-7-12,79,66,54,68,60,53,100,83,52,30.13,30.05,12,2,16,0.01
2013-7-13,87,66,57,71,62,57,100,90,55,30.15,30.09,4,0,8,0.01
2013-7-14,94,80,65,76,71,64,98,75,53,30.19,30.13,5,1,10,0.00
2013-7-15,90,78,70,80,75,70,100,92,67,30.24,30.18,5,1,9,0.77
2013-7-16,92,82,72,78,75,72,100,83,57,30.29,30.22,6,1,8,0.01
2013-7-17,95,82,73,81,75,71,96,80,60,30.29,30.13,9,1,11,0.00
2013-7-18,94,83,72,80,76,72,99,79,60,30.15,29.93,7,1,11,0.00
2013-7-19,94,85,77,78,75,73,92,73,53,29.95,29.73,14,3,17,0.00
2013-7-20,85,78,67,75,69,64,95,76,53,29.90,29.73,14,3,16,0.00
2013-7-21,89,76,63,73,68,63,99,79,49,29.95,29.83,10,1,16,0.06
2013-7-22,87,74,66,73,69,65,97,85,58,29.89,29.72,8,2,15,0.00
2013-7-23,77,70,60,71,64,55,96,83,70,29.91,29.66,24,7,28,0.05
2013-7-24,70,60,48,56,52,47,98,77,53,30.04,29.91,12,4,17,0.00
2013-7-25,77,63,50,61,56,50,100,80,44,30.11,30.03,9,1,12,0.00
2013-7-26,75,67,59,64,60,56,94,81,63,30.05,29.86,12,2,16,0.00
2013-7-27,67,63,59,64,60,50,100,89,71,29.88,29.82,17,5,22,0.04
2013-7-28,66,61,52,55,53,49,95,76,63,29.99,29.84,12,3,17,0.02
2013-7-29,70,63,54,61,56,52,97,80,69,30.17,29.99,12,2,17,0.00
2013-7-30,78,65,52,67,59,51,100,84,54,30.21,30.07,8,1,9,0.00
2013-7-31,70,66,63,68,65,62,99,96,89,30.07,29.92,7,1,9,0.02
2013-8-1,76,68,58,68,62,54,100,83,48,29.95,29.91,15,2,17,0.01
2013-8-2,64,60,56,62,57,54,98,91,76,29.94,29.88,5,2,9,0.28
2013-8-3,75,69,56,68,59,54,100,71,50,30.07,29.88,16,5,21,0.00
2013-8-4,72,66,54,60,57,54,100,74,57,30.20,30.07,14,4,17,0.00
2013-8-5,56,54,52,55,53,51,99,98,96,30.13,30.10,0,0,0,0.00
2013-8-6,80,70,63,73,67,62,99,91,77,29.92,29.84,3,2,10,0.79
2013-8-7,81,71,67,74,70,66,100,96,81,29.90,29.79,6,2,21,3.85
2013-8-8,78,68,62,66,62,60,100,83,62,29.99,29.90,10,3,15,0.01
2013-8-9,81,67,58,71,63,58,100,87,57,30.00,29.94,7,1,10,0.00
2013-8-10,79,70,60,67,63,56,100,79,51,30.09,29.99,12,2,16,0.00
2013-8-11,81,64,56,68,59,55,100,86,53,30.11,30.01,8,1,14,0.00
2013-8-12,84,73,66,72,67,64,99,83,62,30.03,29.82,12,2,19,0.02
2013-8-13,67,62,55,66,56,50,100,80,59,30.12,29.87,22,7,26,0.01
2013-8-14,67,57,45,55,50,44,99,80,56,30.23,30.12,15,3,17,0.00
2013-8-15,74,60,47,61,53,47,100,82,51,30.21,30.10,9,1,11,0.01
2013-8-16,80,65,52,62,56,52,100,78,40,30.19,30.13,8,1,11,0.00
2013-8-17,70,56,52,64,55,52,100,98,80,30.25,30.19,2,0,5,0.01
2013-8-18,82,67,54,67,60,54,100,81,49,30.20,30.09,6,1,12,0.00
2013-8-19,84,68,55,68,62,55,100,83,50,30.12,30.02,4,1,10,0.01
2013-8-20,86,73,61,71,67,61,100,83,56,30.12,30.03,4,1,13,0.00
2013-8-21,88,76,66,74,69,65,97,79,54,30.08,29.95,6,2,11,0.00
2013-8-22,78,72,67,72,69,66,99,91,78,30.09,29.95,22,3,25,0.41
2013-8-23,84,70,59,68,62,55,100,79,40,30.16,30.06,13,2,13,0.01
2013-8-24,86,68,54,66,59,54,100,78,41,30.27,30.16,8,1,12,0.01
2013-8-25,88,73,58,71,64,57,98,77,54,30.26,30.13,8,2,12,0.00
2013-8-26,88,78,68,77,70,63,88,77,64,30.17,29.99,8,2,12,0.00
2013-8-27,92,82,73,79,74,70,93,77,56,30.00,29.81,9,2,14,0.00
2013-8-28,84,76,69,75,71,68,99,86,64,30.00,29.80,13,4,13,0.00
2013-8-29,86,72,63,75,69,63,100,91,56,30.06,29.96,9,1,11,0.00
2013-8-30,92,78,66,78,72,66,100,83,60,29.97,29.71,13,2,18,0.02
2013-8-31,80,72,67,73,70,66,99,93,78,29.83,29.75,8,2,13,0.04
2013-9-1,80,70,67,74,69,67,100,97,81,29.80,29.73,6,1,10,0.00
2013-9-2,74,69,62,71,64,56,100,86,68,29.96,29.74,10,5,20,0.04
2013-9-3,71,63,55,60,57,54,98,84,65,30.07,29.95,6,2,15,0.00
2013-9-4,79,65,54,64,59,54,100,82,47,30.11,30.04,6,2,16,0.01
2013-9-5,76,64,53,61,56,52,100,78,47,30.24,30.10,7,2,14,0.00
2013-9-6,82,65,50,68,57,48,98,78,53,30.25,30.04,4,1,11,0.00
2013-9-7,86,72,64,70,65,59,97,80,54,30.03,29.88,3,2,11,0.05
2013-9-8,78,72,63,69,67,63,100,84,72,30.01,29.92,7,1,11,0.00
2013-9-9,92,76,64,78,69,60,89,79,60,29.98,29.82,9,3,14,0.00
2013-9-10,95,84,74,74,71,67,87,67,41,29.98,29.86,9,2,12,0.00
2013-9-11,93,78,69,76,71,68,99,82,50,30.02,29.93,12,3,15,0.39
2013-9-12,80,70,61,69,62,53,99,77,43,30.02,29.87,17,4,23,0.00
2013-9-13,61,56,46,53,47,45,97,73,57,30.13,30.02,23,6,27,0.00
2013-9-14,70,55,43,51,45,42,99,75,38,30.21,30.06,7,1,9,0.01
2013-9-15,62,56,49,59,51,44,97,86,75,30.13,30.01,9,1,10,0.05
2013-9-16,65,56,48,56,52,47,99,88,63,30.33,30.12,11,3,17,0.00
2013-9-17,72,56,45,56,50,44,98,82,49,30.37,30.15,7,2,11,0.01
2013-9-18,81,67,54,67,58,49,94,75,57,30.15,29.93,9,2,13,0.08
2013-9-19,76,70,66,72,68,65,99,95,84,30.00,29.81,10,4,15,3.66
2013-9-20,75,70,62,72,66,57,96,86,80,29.83,29.73,10,2,17,0.00
2013-9-21,63,61,60,58,57,52,91,84,69,29.81,29.73,17,6,25,0.00
2013-9-23,71,53,38,52,46,38,100,81,50,30.16,30.07,4,1,12,0.00
2013-9-24,72,57,47,55,49,45,96,78,47,30.11,29.95,4,2,11,0.00
2013-9-25,75,58,46,58,51,45,100,82,48,29.99,29.93,5,1,13,0.00
2013-9-26,82,60,44,59,51,44,100,79,36,30.10,29.97,3,1,10,0.01
2013-9-27,80,63,51,58,52,46,96,69,38,30.20,30.09,4,2,13,0.00
2013-9-28,81,67,53,62,57,52,96,72,45,30.13,29.93,6,3,17,0.00
2013-9-29,71,57,48,62,53,48,98,88,67,30.01,29.92,9,2,22,0.18
2013-9-30,75,58,44,58,51,44,100,79,42,30.02,29.90,8,1,12,0.01
2013-10-1,79,66,57,67,62,54,99,88,65,29.99,29.89,13,3,15,0.00
2013-10-2,82,70,62,66,60,53,99,75,41,30.07,29.93,8,1,10,0.00
2013-10-3,77,67,60,71,65,57,99,94,79,29.99,29.85,8,2,14,0.70
2013-10-4,80,71,65,73,68,63,97,91,76,29.98,29.87,7,2,12,0.00
2013-10-5,82,70,65,74,69,65,100,94,75,29.94,29.77,11,2,16,0.58
2013-10-6,67,58,48,66,55,42,99,89,71,29.78,29.67,9,2,18,0.44
2013-10-7,62,51,45,51,46,42,97,84,58,30.11,29.74,14,3,23,0.00
2013-10-8,77,58,46,58,50,44,96,76,39,30.23,30.11,8,2,11,0.00
2013-10-9,74,56,44,53,48,42,98,78,39,30.28,30.15,8,1,11,0.00
2013-10-10,77,58,46,57,50,45,97,78,43,30.20,30.07,6,1,9,0.00
2013-10-11,77,60,48,56,50,46,97,75,38,30.13,29.99,7,1,11,0.00
2013-10-12,77,59,52,64,54,50,96,85,56,30.11,29.97,7,2,17,0.02
2013-10-13,61,54,41,55,46,40,98,76,56,30.39,30.11,17,4,20,0.00
2013-10-14,66,50,38,49,44,38,100,81,50,30.43,30.20,11,1,11,0.01
2013-10-15,65,56,47,62,54,44,98,92,83,30.21,29.80,10,3,13,0.09
2013-10-16,62,51,46,60,47,44,93,86,80,29.93,29.83,10,2,18,0.00
2013-10-17,51,49,44,48,46,42,95,90,86,29.93,29.81,13,2,15,0.15
2013-10-18,56,46,40,48,42,39,95,87,67,29.96,29.87,12,3,20,0.00
2013-10-19,54,47,42,44,40,34,97,77,48,29.94,29.79,15,2,20,0.15
2013-10-20,63,52,40,48,42,37,92,72,55,29.91,29.77,16,4,21,0.00
2013-10-21,56,49,42,49,42,28,95,77,59,29.95,29.82,16,4,20,0.09
2013-10-22,47,39,32,36,32,29,95,76,54,29.99,29.92,21,3,21,0.01
2013-10-23,43,37,33,38,34,30,98,90,63,30.02,29.87,17,2,19,0.65
2013-10-24,43,38,33,36,33,31,96,84,66,30.27,29.99,14,3,20,0.22
2013-10-25,50,41,35,35,32,28,96,71,46,30.40,30.13,12,3,20,0.04
2013-10-26,52,47,41,41,35,30,68,63,56,30.13,29.85,16,7,25,0.00
2013-10-27,56,44,32,37,33,31,96,68,41,30.09,29.99,10,2,13,0.00
2013-10-28,59,37,31,42,33,30,95,86,49,30.36,30.05,4,1,10,0.00
2013-10-29,57,44,33,44,38,32,97,82,58,30.41,30.20,8,2,11,0.00
2013-10-30,61,53,41,58,50,39,99,90,80,30.19,29.84,8,2,12,0.79
2013-10-31,64,62,59,64,61,58,100,97,95,29.84,29.63,15,6,25,0.69
2013-11-1,53,48,46,52,44,40,98,87,72,29.72,29.28,7,4,25,0.17
2013-11-2,47,45,44,45,42,38,97,89,77,30.10,29.72,9,4,23,0.24
2013-11-3,50,43,37,42,38,37,99,86,65,30.34,30.11,8,2,13,0.04
2013-11-4,53,47,40,44,40,36,89,77,64,30.37,30.19,16,5,20,0.00
2013-11-5,56,53,50,50,47,44,93,80,72,30.31,30.05,14,4,15,0.00
2013-11-6,59,51,42,54,48,35,97,88,68,30.09,29.80,17,7,23,0.48
2013-11-7,45,41,38,35,33,29,83,73,57,30.24,30.09,21,6,21,0.00
2013-11-8,48,42,32,36,32,28,86,70,54,30.34,30.09,11,4,18,0.02
2013-11-9,59,51,45,44,39,32,73,64,55,30.08,29.88,25,7,27,0.00
2013-11-10,48,41,31,35,32,29,93,72,57,30.32,30.03,23,7,31,0.00
2013-11-11,47,38,27,40,33,25,97,84,67,30.43,30.11,18,6,24,0.16
2013-11-12,33,26,17,31,24,16,97,93,72,30.66,30.43,12,3,17,0.02
2013-11-13,36,28,16,25,21,14,93,78,61,30.62,30.25,15,5,26,0.01
2013-11-14,49,40,29,32,27,22,76,61,50,30.25,30.00,15,6,23,0.02
2013-11-15,48,45,38,38,34,28,72,66,60,30.05,29.98,11,4,18,0.00
2013-11-16,59,51,42,57,47,34,95,87,71,30.01,29.66,18,7,28,0.06
2013-11-17,65,62,59,62,60,57,96,93,91,29.67,29.23,25,8,29,0.19
2013-11-18,45,39,36,40,32,27,83,75,70,30.22,29.68,22,10,27,0.00
2013-11-19,46,38,31,32,29,28,87,73,54,30.39,30.23,9,2,17,0.00
2013-11-20,45,37,30,37,30,26,93,77,60,30.37,30.16,13,4,21,0.09
2013-11-21,50,45,39,46,42,37,98,90,80,30.22,30.16,12,3,16,0.27
2013-11-22,46,38,28,46,36,26,99,91,78,30.45,30.17,23,8,31,0.02
2013-11-23,30,26,22,28,20,12,92,77,62,30.65,30.40,27,10,36,0.00
2013-11-24,26,22,20,19,12,2,88,64,38,30.71,30.46,18,6,25,0.00
2013-11-25,31,26,19,27,19,10,90,74,60,30.46,30.14,16,5,20,0.00
2013-11-26,35,30,27,30,26,20,96,84,61,30.15,30.00,20,5,26,0.00
2013-11-27,29,26,22,26,22,18,96,82,66,30.27,30.06,18,6,28,0.00
2013-11-28,33,27,22,24,19,13,92,71,56,30.48,30.24,12,3,15,0.00
2013-11-29,36,30,25,24,22,20,85,73,58,30.66,30.48,12,2,15,0.00
2013-11-30,50,37,28,34,28,22,79,71,55,30.53,30.09,12,3,17,0.00
2013-12-1,41,35,28,36,31,26,95,85,73,30.12,30.01,9,1,13,0.00
2013-12-2,41,35,28,33,30,26,96,85,69,30.01,29.84,8,3,12,0.04
2013-12-3,49,42,34,48,40,33,97,95,92,29.84,29.74,13,5,16,0.13
2013-12-4,59,52,46,57,50,45,99,96,90,29.80,29.56,14,4,17,0.00
2013-12-5,57,35,28,54,30,21,91,82,73,30.24,29.59,19,5,20,0.00
2013-12-6,28,25,23,22,20,15,82,78,71,30.49,30.23,17,6,18,0.00
2013-12-7,23,19,13,17,14,12,93,78,72,30.68,30.49,14,5,18,0.00
2013-12-8,26,21,13,24,17,11,95,86,75,30.63,30.00,18,3,18,0.00
2013-12-9,27,22,13,25,18,8,95,82,68,30.23,29.97,16,4,19,0.00
2013-12-10,24,14,1,14,7,-3,84,75,64,30.33,30.07,17,5,29,0.00
2013-12-11,23,18,12,21,13,6,93,81,69,30.54,30.32,20,6,23,0.00
2013-12-12,22,8,-4,13,2,-8,86,75,54,30.57,30.30,13,4,18,0.00
2013-12-13,33,22,9,25,16,7,92,79,61,30.30,30.18,8,2,10,0.00
2013-12-14,27,24,21,25,22,18,95,92,87,30.21,29.90,10,4,14,0.00
2013-12-15,28,20,14,25,16,9,94,84,80,30.13,29.93,14,4,19,0.00
2013-12-16,22,13,6,17,10,4,93,86,71,30.21,30.06,5,2,13,0.00
2013-12-17,32,25,17,27,22,15,94,88,75,30.10,29.98,12,4,17,0.00
2013-12-18,34,27,20,27,19,16,85,73,59,30.22,29.91,14,5,25,0.00
2013-12-19,43,39,35,38,35,27,97,86,74,29.99,29.84,12,2,16,0.07
2013-12-20,43,39,34,43,38,34,99,99,97,29.84,29.71,8,1,10,0.27
2013-12-21,36,35,33,36,34,32,100,99,98,29.86,29.61,8,1,13,0.57
2013-12-22,36,33,29,35,32,27,99,97,93,30.08,29.52,11,3,14,0.16
2013-12-23,29,22,6,27,18,3,94,86,72,30.45,30.08,10,4,20,0.00
2013-12-24,19,10,3,13,6,-1,88,84,75,30.60,30.45,10,4,12,0.00
2013-12-25,27,23,17,26,19,13,96,87,77,30.50,30.13,15,5,22,0.00
2013-12-26,33,26,21,28,22,17,94,84,70,30.32,30.11,18,4,21,0.00
2013-12-27,42,36,28,34,31,26,93,83,72,30.33,30.12,17,4,24,0.01
2013-12-28,50,41,33,39,34,30,89,78,65,30.14,29.88,18,5,23,0.00
2013-12-29,40,32,21,34,28,17,95,86,77,30.12,29.78,24,8,29,0.00
2013-12-30,21,16,13,18,12,10,90,84,77,30.33,30.12,11,4,19,0.00
2013-12-31,16,14,12,13,10,6,92,85,68,30.40,30.20,11,3,14,0.00
2014-1-1,20,16,12,16,13,10,93,89,83,30.37,30.23,11,1,13,0.00
2014-1-2,15,12,0,12,7,-4,91,80,63,30.42,30.14,19,7,23,0.00